Regional Weather Roundup
Issued by NWS Kansas City/Pleasant Hill, MO

Home | Current Version | Previous Version | Text Only | Print | Product List | Glossary On
Versions: 1 2 3 4 5 6 7 8 9 10 11 12 13 14 15 16 17 18 19 20 21 22 23 24 25 26 27
000
ASUS43 KEAX 262210
RWREAX

WEATHER ROUNDUP FOR EASTERN KANSAS AND NORTHWEST MISSOURI
NATIONAL WEATHER SERVICE KANSAS CITY/PLEASANT HILL MO
500 PM CDT THU MAY 26 2016

KSZ040-057-103>105-MOZ028-029-037-043-262300-
...KANSAS CITY METROPOLITAN AREA...

CITY           SKY/WX    TMP DP  RH WIND       PRES   REMARKS
K.C. INTL      TSTM      62  60  93 NE22G39   29.84R VSB 1
K.C. DOWNTOWN  CLOUDY    69  63  81 NE20G32   29.74R THUNDER
LEES SUMMIT    CLOUDY    73  65  75 E12G18    29.79S THUNDER
OLATHE - IXD   CLOUDY    81  72  74 S8        29.78S
OLATHE - OJC   CLOUDY    78  71  79 SE6       29.77F
LAWRENCE       TSTM      64  61  90 NW48G61   29.80R FOG

$$

MOZ001>008-011>017-020>025-030>033-038>040-044>046-053-054-262300-
...NORTHERN AND CENTRAL MISSOURI...

CITY           SKY/WX    TMP DP  RH WIND       PRES   REMARKS
ST. JOSEPH     TSTM      65  59  81 SE14      29.80F
MOSBY          TSTM      66  59  77 NW16G33   29.86R
WARRENSBURG    CLOUDY    70  66  88 SE15G21   29.87R
WHITEMAN AFB   RAIN      75  70  86 N15       29.77F
CLINTON        LGT RAIN  82  73  74 SE7       29.78R
SEDALIA        CLOUDY    81  68  64 E8        29.80F
WARSAW         NOT AVBL
CHILLICOTHE      N/A     72  59  63 MISG      29.86R
KIRKSVILLE     CLOUDY    76  62  62 NW10      29.81R

$$

MOZ041-047>049-056>058-063>065-088>090-097-262300-
...EASTERN AND SOUTHERN MISSOURI...

CITY           SKY/WX    TMP DP  RH WIND       PRES   REMARKS
ST. LOUIS INTL MOSUNNY   81  66  60 S13       29.88F
SPIRIT OF STL  MOSUNNY   81  68  64 S10       29.86F
COLUMBIA       CLOUDY    84  69  60 SE12      29.83F
JEFFERSON CITY MOSUNNY   87  66  49 SE14      29.80F
ROLLA          SUNNY     82  68  62 SE14      29.84F
SPRINGFIELD    CLOUDY    84  69  60 S16       29.82F
BRANSON        CLOUDY    77  70  78 S14       29.91R
JOPLIN         SUNNY     84  73  69 S20G25    29.79F HX  90
WEST PLAINS    MOSUNNY   82  69  64 S13G21    29.90F

$$

IAZ060-094-KSZ022-034>040-054-083-096-NEZ052-066-093-262300-
...KANSAS...SOUTHEAST NEBRASKA AND IOWA...

CITY           SKY/WX    TMP DP  RH WIND       PRES   REMARKS
TOPEKA         TSTM      63  60  90 N14G23    29.79F
MANHATTAN      LGT RAIN  66  62  87 NE13      29.71F
EMPORIA        TSTM      68  64  87 NW7       29.74F VSB 1
CHANUTE        MOSUNNY   83  72  69 S13       29.76S
WICHITA        CLOUDY    82  73  74 SE13      29.68F
OMAHA          TSTM      70  64  81 SE6G24    29.82R
LINCOLN        CLOUDY    69  60  73 E16G24    29.71F
FALLS CITY     LGT RAIN  69  59  70 S23G41    29.77R
LAMONI         LGT RAIN  69  66  90 SW8       29.87R
DES MOINES     CLOUDY    76  65  68 SE6       29.85R

$$





USA.gov is the U.S. government's official web portal to all federal, state and local government web resources and services.